Regional Weather Roundup
Issued by NWS

Home | Current Version | Previous Version | Graphics & Text | Print | Product List | Glossary On
Versions: 1 2 3 4 5 6 7 8 9 10 11 12 13 14 15 16 17 18 19 20 21 22 23 24 25 26 27 28 29 30 31 32 33 34 35 36 37 38 39 40 41 42 43 44 45 46 47 48 49 50
498
ASUS43 KBIS 281902
RWRND

NORTH DAKOTA REGIONAL WEATHER ROUNDUP
NATIONAL WEATHER SERVICE BISMARCK ND
200 PM CDT THU APR 28 2016

NOTE: "FAIR" INDICATES FEW OR NO CLOUDS BELOW 12,000 FEET WITH NO
SIGNIFICANT WEATHER AND/OR OBSTRUCTIONS TO VISIBILITY.


NDZ001>003-009>011-017-282000-
NORTHWEST NORTH DAKOTA

CITY           SKY/WX    TMP DP  RH WIND       PRES   REMARKS
WILLISTON      CLOUDY    56  23  27 E13       30.14F
MINOT          CLOUDY    58  11  15 E14G21    30.13F
MINOT AFB      CLOUDY    55  15  20 E17G23    30.12F
$$

NDZ018>021-031>035-040>046-282000-
SOUTHWEST NORTH DAKOTA

CITY           SKY/WX    TMP DP  RH WIND       PRES   REMARKS
BISMARCK       CLOUDY    57  24  28 E14G23    30.09F
DICKINSON      CLOUDY    47  34  60 E9        30.08F
GARRISON         N/A     52  20  28 NE10G24   30.12S
HETTINGER ARPT CLOUDY    40  35  83 NE9       30.11S
$$

NDZ004>008-012>016-024-026-027-054-282000-
NORTHEAST NORTH DAKOTA

CITY           SKY/WX    TMP DP  RH WIND       PRES   REMARKS
GRAND FORKS    CLOUDY    57  20  23 NE18      30.11F
GRND FRKS AFB  MOSUNNY   57  19  22 NE14G22   30.12S
DEVILS LAKE    CLOUDY    52  16  24 E18       30.13F
$$

NDZ022-023-025-028>030-036>039-047>053-282000-
SOUTHEAST NORTH DAKOTA

CITY           SKY/WX    TMP DP  RH WIND       PRES   REMARKS
FARGO          CLOUDY    57  18  21 NE10G30   30.06S
JAMESTOWN      CLOUDY    54  26  34 NE18G25   30.06S
$$





USA.gov is the U.S. government's official web portal to all federal, state and local government web resources and services.